When you browse on this site, cookies collect data to enhance your experience and personalize the content and advertising you see.
Visit our Privacy Policy to learn more. By continuing to use the site, you agree to this use of cookies and data.

Hourly Weather Halifax

Today, 20 September, Sunday

Time Temperature Precipitation Wind Pressure Humidity
00:00 +5°C° 0 mm 2 mps 766 mmHg 74%
01:00 +5°C° 0 mm 2 mps 766 mmHg 75%
02:00 +4°C° 0 mm 2 mps 766 mmHg 76%
03:00 +4°C° 0 mm 2 mps 766 mmHg 77%
04:00 +4°C° 0 mm 2 mps 767 mmHg 77%
05:00 +4°C° 0 mm 2 mps 767 mmHg 77%
06:00 +4°C° 0 mm 3 mps 767 mmHg 72%
07:00 +7°C° 0 mm 3 mps 768 mmHg 66%
08:00 +8°C° 0 mm 4 mps 768 mmHg 60%
09:00 +11°C° 0 mm 4 mps 768 mmHg 55%
10:00 +12°C° 0 mm 4 mps 768 mmHg 50%
11:00 +14°C° 0 mm 4 mps 769 mmHg 45%
12:00 +14°C° 0 mm 4 mps 769 mmHg 40%
13:00 +14°C° 0 mm 4 mps 769 mmHg 36%
14:00 +15°C° 0 mm 5 mps 769 mmHg 31%
15:00 +14°C° 0 mm 5 mps 769 mmHg 34%
16:00 +13°C° 0 mm 5 mps 769 mmHg 37%
17:00 +12°C° 0 mm 5 mps 769 mmHg 40%
18:00 +10°C° 0 mm 4 mps 770 mmHg 48%
19:00 +7°C° 0 mm 4 mps 770 mmHg 57%
20:00 +5°C° 0 mm 4 mps 771 mmHg 66%
21:00 +4°C° 0 mm 4 mps 771 mmHg 70%
22:00 +4°C° 0 mm 4 mps 771 mmHg 74%
23:00 +3°C° 0 mm 3 mps 771 mmHg 79%

Tomorrow, 21 September, Monday

Time Temperature Precipitation Wind Pressure Humidity
00:00 +3°C° 0 mm 3 mps 771 mmHg 80%
01:00 +3°C° 0 mm 3 mps 771 mmHg 82%
02:00 +2°C° 0 mm 3 mps 771 mmHg 84%
03:00 +2°C° 0 mm 3 mps 771 mmHg 86%
04:00 +2°C° 0 mm 3 mps 771 mmHg 88%
05:00 +2°C° 0 mm 3 mps 772 mmHg 89%
06:00 +4°C° 0 mm 3 mps 772 mmHg 82%
07:00 +7°C° 0 mm 3 mps 772 mmHg 75%
08:00 +9°C° 0 mm 3 mps 773 mmHg 68%
09:00 +10°C° 0 mm 3 mps 772 mmHg 60%
10:00 +12°C° 0 mm 3 mps 772 mmHg 53%
11:00 +14°C° 0 mm 3 mps 772 mmHg 45%
12:00 +16°C° 0 mm 3 mps 772 mmHg 42%
13:00 +17°C° 0 mm 3 mps 771 mmHg 40%
14:00 +17°C° 0 mm 3 mps 771 mmHg 37%
15:00 +17°C° 0 mm 2 mps 771 mmHg 42%
16:00 +16°C° 0 mm 2 mps 770 mmHg 47%
17:00 +15°C° 0 mm 2 mps 770 mmHg 52%
18:00 +13°C° 0 mm 2 mps 770 mmHg 61%
19:00 +9°C° 0 mm 2 mps 770 mmHg 70%
20:00 +7°C° 0 mm 2 mps 770 mmHg 78%
21:00 +5°C° 0 mm 3 mps 769 mmHg 79%
22:00 +5°C° 0 mm 3 mps 769 mmHg 80%
23:00 +4°C° 0 mm 4 mps 768 mmHg 81%

Day after tomorrow, 22 September, Tuesday

Time Temperature Precipitation Wind Pressure Humidity
00:00 +5°C° 0 mm 4 mps 767 mmHg 79%
01:00 +5°C° 0 mm 5 mps 766 mmHg 77%
02:00 +6°C° 0 mm 5 mps 766 mmHg 76%
03:00 +6°C° 0 mm 5 mps 765 mmHg 75%
04:00 +5°C° 0 mm 6 mps 764 mmHg 74%
05:00 +7°C° 0 mm 6 mps 763 mmHg 73%
06:00 +6°C° 0 mm 7 mps 763 mmHg 69%
07:00 +8°C° 0 mm 7 mps 762 mmHg 65%
08:00 +9°C° 0 mm 8 mps 761 mmHg 61%
09:00 +7°C° 0.8 mm 8 mps 760 mmHg 71%
10:00 +7°C° 0.8 mm 9 mps 759 mmHg 80%
11:00 +6°C° 0.8 mm 10 mps 758 mmHg 89%
12:00 +6°C° 1.9 mm 10 mps 756 mmHg 91%
13:00 +6°C° 1.9 mm 11 mps 755 mmHg 93%
14:00 +7°C° 1.9 mm 11 mps 753 mmHg 95%
15:00 +7°C° 2.1 mm 11 mps 752 mmHg 95%
16:00 +8°C° 2.1 mm 11 mps 750 mmHg 95%
17:00 +9°C° 2.1 mm 10 mps 749 mmHg 95%
18:00 +9°C° 1.3 mm 10 mps 748 mmHg 96%
19:00 +11°C° 1.3 mm 10 mps 747 mmHg 96%
20:00 +11°C° 1.3 mm 9 mps 746 mmHg 96%
21:00 +12°C° 0.7 mm 9 mps 745 mmHg 96%
22:00 +12°C° 0.7 mm 9 mps 744 mmHg 96%
23:00 +13°C° 0.7 mm 9 mps 742 mmHg 97%

23 September, Wednesday

Time Temperature Precipitation Wind Pressure Humidity
00:00 +13°C° 1.7 mm 9 mps 740 mmHg 97%
01:00 +15°C° 1.7 mm 9 mps 739 mmHg 97%
02:00 +15°C° 1.7 mm 9 mps 737 mmHg 97%
03:00 +14°C° 5.5 mm 10 mps 736 mmHg 97%
04:00 +14°C° 5.5 mm 11 mps 734 mmHg 97%
05:00 +14°C° 5.5 mm 12 mps 733 mmHg 96%
06:00 +14°C° 5.7 mm 12 mps 733 mmHg 96%
07:00 +14°C° 5.7 mm 13 mps 732 mmHg 96%
08:00 +14°C° 5.7 mm 13 mps 732 mmHg 95%
09:00 +14°C° 1.1 mm 13 mps 733 mmHg 94%
10:00 +13°C° 1.1 mm 13 mps 733 mmHg 93%
11:00 +13°C° 1.1 mm 13 mps 734 mmHg 92%
12:00 +13°C° 0.1 mm 13 mps 736 mmHg 90%
13:00 +13°C° 0.1 mm 12 mps 737 mmHg 88%
14:00 +13°C° 0.1 mm 11 mps 739 mmHg 86%
15:00 +13°C° 0 mm 10 mps 740 mmHg 85%
16:00 +13°C° 0 mm 10 mps 742 mmHg 83%
17:00 +12°C° 0 mm 9 mps 743 mmHg 82%
18:00 +14°C° 0 mm 7 mps 744 mmHg 78%
19:00 +14°C° 0 mm 6 mps 745 mmHg 75%
20:00 +14°C° 0 mm 5 mps 746 mmHg 71%
21:00 +15°C° 0 mm 5 mps 747 mmHg 71%
22:00 +15°C° 0 mm 5 mps 747 mmHg 70%
23:00 +15°C° 0 mm 5 mps 748 mmHg 70%

24 September, Thursday

Time Temperature Precipitation Wind Pressure Humidity
00:00 +15°C° 0 mm 5 mps 748 mmHg 74%
01:00 +14°C° 0 mm 5 mps 748 mmHg 77%
02:00 +14°C° 0 mm 5 mps 748 mmHg 81%
03:00 +13°C° 0 mm 4 mps 749 mmHg 85%
04:00 +13°C° 0 mm 4 mps 749 mmHg 89%
05:00 +12°C° 0 mm 4 mps 750 mmHg 93%
06:00 +13°C° 0 mm 4 mps 750 mmHg 89%
07:00 +14°C° 0 mm 4 mps 751 mmHg 86%
08:00 +15°C° 0 mm 4 mps 752 mmHg 82%
09:00 +18°C° 0 mm 3 mps 752 mmHg 75%
10:00 +19°C° 0 mm 3 mps 752 mmHg 68%
11:00 +21°C° 0 mm 3 mps 753 mmHg 60%
12:00 +22°C° 0 mm 4 mps 753 mmHg 57%
13:00 +22°C° 0 mm 4 mps 752 mmHg 54%
14:00 +23°C° 0 mm 4 mps 752 mmHg 50%
15:00 +22°C° 0 mm 4 mps 753 mmHg 58%
16:00 +21°C° 0 mm 4 mps 753 mmHg 65%
17:00 +20°C° 0 mm 4 mps 753 mmHg 73%
18:00 +18°C° 0 mm 4 mps 753 mmHg 79%
19:00 +16°C° 0 mm 3 mps 754 mmHg 84%
20:00 +14°C° 0 mm 3 mps 754 mmHg 90%
21:00 +13°C° 0 mm 3 mps 754 mmHg 91%
22:00 +12°C° 0 mm 3 mps 754 mmHg 92%
23:00 +12°C° 0 mm 4 mps 754 mmHg 93%

25 September, Friday

Time Temperature Precipitation Wind Pressure Humidity
00:00 +12°C° 0 mm 4 mps 754 mmHg 92%
01:00 +12°C° 0 mm 4 mps 753 mmHg 92%
02:00 +12°C° 0 mm 4 mps 753 mmHg 92%
03:00 +12°C° 0 mm 4 mps 754 mmHg 92%
04:00 +12°C° 0 mm 4 mps 754 mmHg 93%
05:00 +12°C° 0 mm 4 mps 754 mmHg 93%
06:00 +13°C° 0 mm 4 mps 755 mmHg 88%
07:00 +13°C° 0 mm 5 mps 756 mmHg 83%
08:00 +14°C° 0 mm 5 mps 757 mmHg 78%
09:00 +14°C° 0 mm 5 mps 757 mmHg 69%
10:00 +14°C° 0 mm 5 mps 758 mmHg 60%
11:00 +13°C° 0 mm 5 mps 758 mmHg 50%
12:00 +14°C° 0 mm 5 mps 759 mmHg 47%
13:00 +15°C° 0 mm 5 mps 759 mmHg 44%
14:00 +15°C° 0 mm 4 mps 760 mmHg 41%
15:00 +15°C° 0 mm 4 mps 760 mmHg 45%
16:00 +14°C° 0 mm 3 mps 761 mmHg 50%
17:00 +13°C° 0 mm 3 mps 761 mmHg 54%
18:00 +11°C° 0 mm 3 mps 762 mmHg 61%
19:00 +9°C° 0 mm 3 mps 763 mmHg 69%
20:00 +7°C° 0 mm 3 mps 763 mmHg 76%
21:00 +7°C° 0 mm 2 mps 764 mmHg 76%
22:00 +6°C° 0 mm 2 mps 764 mmHg 76%
23:00 +7°C° 0 mm 1 mps 765 mmHg 76%
Show more